#�ϑ�����,���ϕ���,���ϕ���,�ő啗��,�ő啗����������,�ő�u�ԕ���,�ő�u�ԕ�����������
#(�N����),(m/s)   ,(16����),(m/s)   ,(16����)        ,(m/s)       ,(16����)            
2014/5/20 0:01,1.5,1,1.5,1,2.4,2
2014/5/20 0:02,1.5,1,1.5,1,1.8,16
2014/5/20 0:03,1.5,16,1.6,1,1.8,2
2014/5/20 0:04,1.5,1,1.5,1,2.5,2
2014/5/20 0:05,1.6,1,1.6,1,2.4,1
2014/5/20 0:06,1.6,1,1.6,1,2.5,1
2014/5/20 0:07,1.5,1,1.6,1,2,15
2014/5/20 0:08,1.4,1,1.5,1,2.4,1
2014/5/20 0:09,1.4,1,1.4,1,2.6,1
2014/5/20 0:10,1.5,1,1.5,1,2.9,16
2014/5/20 0:11,1.5,1,1.5,1,2.1,16
2014/5/20 0:12,1.5,1,1.5,1,1.8,15
2014/5/20 0:13,1.5,1,1.5,1,1.8,16
2014/5/20 0:14,1.5,1,1.5,1,2,2
2014/5/20 0:15,1.5,1,1.5,1,1.9,1
2014/5/20 0:16,1.5,1,1.5,1,1.9,2
2014/5/20 0:17,1.5,1,1.5,1,1.8,15
2014/5/20 0:18,1.5,1,1.5,1,2.7,15
2014/5/20 0:19,1.5,1,1.5,1,2,1
2014/5/20 0:20,1.4,1,1.5,1,2.2,1
2014/5/20 0:21,1.5,1,1.5,1,2.1,2
2014/5/20 0:22,1.5,1,1.5,1,2.6,15
2014/5/20 0:23,1.5,1,1.5,1,2,16
2014/5/20 0:24,1.5,1,1.5,1,2.2,3
2014/5/20 0:25,1.4,1,1.5,1,2,2
2014/5/20 0:26,1.4,1,1.4,1,1.3,16
2014/5/20 0:27,1.3,1,1.3,1,1.3,16
2014/5/20 0:28,1.2,1,1.3,1,1.4,16
2014/5/20 0:29,1.1,1,1.2,1,1.5,2
2014/5/20 0:30,1.1,1,1.1,1,1.5,1
2014/5/20 0:31,1,1,1.1,1,1,2
2014/5/20 0:32,0.9,2,0.9,1,2,7
2014/5/20 0:33,1,2,1,1,2.6,8
2014/5/20 0:34,0.9,3,1,1,1.9,9
2014/5/20 0:35,0.9,4,0.9,1,1.4,8
2014/5/20 0:36,0.9,5,0.9,1,1.6,8
2014/5/20 0:37,0.9,6,0.9,1,1.4,8
2014/5/20 0:38,0.9,7,0.9,1,0.8,10
2014/5/20 0:39,0.9,8,0.9,1,0.9,10
2014/5/20 0:40,0.9,8,0.9,1,1,10
2014/5/20 0:41,0.9,8,0.9,2,0.6,8
2014/5/20 0:42,0.8,9,0.9,2,1,7
2014/5/20 0:43,0.6,9,0.8,2,0.5,9
2014/5/20 0:44,0.6,9,0.6,3,0.1,1
2014/5/20 0:45,0.5,9,0.5,4,0.6,15
2014/5/20 0:46,0.4,10,0.5,5,0.8,14
2014/5/20 0:47,0.4,12,0.4,6,0.8,15
2014/5/20 0:48,0.4,13,0.4,7,1,16
2014/5/20 0:49,0.3,14,0.4,8,0.8,15
2014/5/20 0:50,0.3,15,0.4,8,0.8,15
2014/5/20 0:51,0.3,16,0.3,8,1.1,16
2014/5/20 0:52,0.3,16,0.3,9,1.5,16
2014/5/20 0:53,0.5,16,0.5,9,1.8,16
2014/5/20 0:54,0.6,16,0.6,16,1.4,16
2014/5/20 0:55,0.6,16,0.6,16,1.5,15
2014/5/20 0:56,0.7,16,0.7,16,1.6,16
2014/5/20 0:57,0.8,16,0.8,16,1.3,1
2014/5/20 0:58,0.8,16,0.8,16,1.4,1
2014/5/20 0:59,0.8,1,0.8,16,1,15
2014/5/20 1:00,0.8,1,0.8,16,0.9,16
2014/5/20 1:01,0.9,1,0.9,16,1.1,1
2014/5/20 1:02,0.9,1,0.9,16,2.1,16
2014/5/20 1:03,0.9,1,0.9,16,2.1,16
2014/5/20 1:04,1,1,1,1,2.2,16
2014/5/20 1:05,1,1,1,1,2,16
2014/5/20 1:06,1,1,1,1,2.1,16
2014/5/20 1:07,1.1,1,1.1,1,2.2,16
2014/5/20 1:08,1.1,16,1.1,1,1.9,15
2014/5/20 1:09,1.2,16,1.2,1,2.1,2
2014/5/20 1:10,1.2,16,1.2,1,1,16
2014/5/20 1:11,1.2,16,1.2,1,0.9,15
2014/5/20 1:12,1.1,16,1.2,1,0.9,1
2014/5/20 1:13,1,1,1.1,1,0.5,5
2014/5/20 1:14,0.9,16,1,1,0.1,15
2014/5/20 1:15,0.8,16,0.9,1,1.4,4
2014/5/20 1:16,0.7,1,0.8,1,1.4,4
2014/5/20 1:17,0.7,1,0.7,1,1.9,1
2014/5/20 1:18,0.7,1,0.7,1,1.8,16
2014/5/20 1:19,0.6,1,0.7,16,1.3,1
2014/5/20 1:20,0.6,16,0.6,16,1.1,15
2014/5/20 1:21,0.5,16,0.6,16,0.9,3
2014/5/20 1:22,0.6,16,0.6,1,1.5,1
2014/5/20 1:23,0.7,16,0.7,1,1.8,1
2014/5/20 1:24,0.8,16,0.8,16,1.6,15
2014/5/20 1:25,0.8,1,0.9,1,1.5,2
2014/5/20 1:26,0.9,16,0.9,1,1.5,16
2014/5/20 1:27,0.9,16,0.9,1,2.1,16
2014/5/20 1:28,0.8,16,0.8,1,1.6,16
2014/5/20 1:29,0.9,16,0.9,1,1.5,16
2014/5/20 1:30,0.9,1,0.9,1,0.8,16
2014/5/20 1:31,0.9,1,0.9,1,1.5,16
2014/5/20 1:32,0.9,1,0.9,1,1.3,16
2014/5/20 1:33,0.9,1,0.9,1,1.1,2
2014/5/20 1:34,0.9,1,0.9,1,1.8,1
2014/5/20 1:35,0.9,1,0.9,16,1.8,1
2014/5/20 1:36,0.9,1,0.9,16,1.6,1
2014/5/20 1:37,0.9,1,0.9,16,1.6,16
2014/5/20 1:38,0.9,1,0.9,16,1.9,16
2014/5/20 1:39,1,1,1,1,1.9,1
2014/5/20 1:40,1.1,1,1.1,1,1.8,16
2014/5/20 1:41,1.1,1,1.1,1,1.8,1
2014/5/20 1:42,1.2,1,1.2,1,2.1,2
2014/5/20 1:43,1.3,1,1.3,1,2.2,1
2014/5/20 1:44,1.3,1,1.3,1,2.4,16
2014/5/20 1:45,1.3,1,1.3,1,2.6,1
2014/5/20 1:46,1.4,1,1.4,1,3,1
2014/5/20 1:47,1.6,1,1.6,1,3,16
2014/5/20 1:48,1.6,1,1.6,1,2.9,16
2014/5/20 1:49,1.6,1,1.6,1,2,1
2014/5/20 1:50,1.6,1,1.6,1,2.2,1
2014/5/20 1:51,1.5,1,1.6,1,1.5,2
2014/5/20 1:52,1.5,1,1.5,1,2.4,1
2014/5/20 1:53,1.5,1,1.5,1,1.9,2
2014/5/20 1:54,1.5,1,1.5,1,2.4,1
2014/5/20 1:55,1.4,1,1.5,1,1.9,1
2014/5/20 1:56,1.4,1,1.4,1,1.5,1
2014/5/20 1:57,1.3,1,1.3,1,1.9,2
2014/5/20 1:58,1.2,1,1.2,1,2,2
2014/5/20 1:59,1.3,1,1.3,1,2.4,2
2014/5/20 2:00,1.2,2,1.3,1,2,3
2014/5/20 2:01,1.3,2,1.3,1,1.8,1
2014/5/20 2:02,1.4,2,1.4,1,3.7,3
2014/5/20 2:03,1.4,2,1.4,1,3,3
2014/5/20 2:04,1.5,2,1.5,1,2.6,3
2014/5/20 2:05,1.5,2,1.5,2,2.9,3
2014/5/20 2:06,1.5,2,1.5,2,2.6,4
2014/5/20 2:07,1.6,2,1.6,2,3.3,3
2014/5/20 2:08,1.7,2,1.7,2,3.1,2
2014/5/20 2:09,1.8,3,1.8,2,2.4,3
2014/5/20 2:10,1.9,3,1.9,3,3.5,3
2014/5/20 2:11,2,3,2,3,2.5,3
2014/5/20 2:12,1.9,3,2,3,2.5,3
2014/5/20 2:13,1.8,3,1.9,3,2.2,3
2014/5/20 2:14,1.8,3,1.9,3,3.1,3
2014/5/20 2:15,1.9,3,1.9,3,2.7,4
2014/5/20 2:16,2,3,2,3,3.3,4
2014/5/20 2:17,1.9,3,2,3,3.2,3
2014/5/20 2:18,1.9,3,1.9,3,3.9,3
2014/5/20 2:19,2,3,2,3,4.1,5
2014/5/20 2:20,2.1,3,2.1,3,4.4,4
2014/5/20 2:21,2.2,3,2.2,3,4.7,4
2014/5/20 2:22,2.2,4,2.2,3,3.1,3
2014/5/20 2:23,2.3,4,2.3,4,3.3,4
2014/5/20 2:24,2.2,4,2.3,4,2,3
2014/5/20 2:25,2.2,4,2.2,4,1.8,4
2014/5/20 2:26,2.1,3,2.2,4,3.3,2
2014/5/20 2:27,2.1,4,2.1,4,3.1,3
2014/5/20 2:28,2.1,4,2.1,4,2.6,5
2014/5/20 2:29,2,4,2.1,4,2.6,5
2014/5/20 2:30,1.8,4,2,4,2.2,6
2014/5/20 2:31,1.6,4,1.8,4,1.4,3
2014/5/20 2:32,1.5,4,1.6,4,1.4,4
2014/5/20 2:33,1.3,5,1.5,4,0.6,9
2014/5/20 2:34,1.2,5,1.3,4,0.8,9
2014/5/20 2:35,1.1,6,1.2,4,0.8,8
2014/5/20 2:36,1,6,1.1,3,0.6,8
2014/5/20 2:37,0.8,6,1,4,0.5,8
2014/5/20 2:38,0.6,6,0.8,4,0.1,2
2014/5/20 2:39,0.5,6,0.6,4,0.1,2
2014/5/20 2:40,0.3,6,0.4,4,0.6,6
2014/5/20 2:41,0.3,5,0.3,4,0.9,6
2014/5/20 2:42,0.3,5,0.3,4,1.5,5
2014/5/20 2:43,0.5,5,0.5,5,2.5,3
2014/5/20 2:44,0.6,4,0.6,5,2.5,2
2014/5/20 2:45,0.8,4,0.8,6,3.8,5
2014/5/20 2:46,1.1,4,1.1,4,4.3,5
2014/5/20 2:47,1.3,4,1.3,4,4.4,6
2014/5/20 2:48,1.5,5,1.5,5,3,6
2014/5/20 2:49,1.8,5,1.8,5,4.1,6
2014/5/20 2:50,2,5,2,5,3.3,6
2014/5/20 2:51,2.1,5,2.1,5,2.7,5
2014/5/20 2:52,2.2,5,2.2,5,3,5
2014/5/20 2:53,2.3,6,2.3,6,3,4
2014/5/20 2:54,2.2,6,2.3,6,2.7,5
2014/5/20 2:55,2.1,6,2.2,6,1.6,5
2014/5/20 2:56,1.9,6,2.1,6,2.5,6
2014/5/20 2:57,1.9,5,1.9,6,2,5
2014/5/20 2:58,1.8,5,1.9,6,2.4,3
2014/5/20 2:59,1.6,5,1.8,6,2.1,4
2014/5/20 3:00,1.6,5,1.6,6,2.4,4
2014/5/20 3:01,1.5,5,1.6,6,2,5
2014/5/20 3:02,1.4,5,1.5,6,1.8,3
2014/5/20 3:03,1.4,4,1.5,6,2.2,3
2014/5/20 3:04,1.5,4,1.5,6,3.9,4
2014/5/20 3:05,1.6,4,1.6,6,3.2,3
2014/5/20 3:06,1.7,4,1.7,6,3,5
2014/5/20 3:07,1.8,4,1.8,5,3.5,4
2014/5/20 3:08,1.8,4,1.8,5,4.1,3
2014/5/20 3:09,2,4,2,4,4.8,4
2014/5/20 3:10,2.2,4,2.2,4,4.2,4
2014/5/20 3:11,2.3,4,2.3,4,4.5,5
2014/5/20 3:12,2.4,4,2.4,4,4.4,5
2014/5/20 3:13,2.6,4,2.6,4,4.2,3
2014/5/20 3:14,2.5,4,2.6,4,2.6,4
2014/5/20 3:15,2.4,4,2.5,4,2.4,3
2014/5/20 3:16,2.4,4,2.4,4,1.9,3
2014/5/20 3:17,2.3,3,2.3,4,2.6,3
2014/5/20 3:18,2.2,3,2.3,4,2.7,3
2014/5/20 3:19,2.3,3,2.3,4,4.1,3
2014/5/20 3:20,2.3,3,2.3,4,4.4,3
2014/5/20 3:21,2.3,3,2.3,4,3.7,3
2014/5/20 3:22,2.2,3,2.3,4,3.6,2
2014/5/20 3:23,2.2,3,2.2,4,3.7,3
2014/5/20 3:24,2.3,3,2.3,4,3.3,4
2014/5/20 3:25,2.5,3,2.5,3,5.4,3
2014/5/20 3:26,2.6,3,2.6,3,3.2,3
2014/5/20 3:27,2.5,3,2.6,3,1.8,3
2014/5/20 3:28,2.5,3,2.5,3,3,3
2014/5/20 3:29,2.4,3,2.5,3,3.3,3
2014/5/20 3:30,2.2,3,2.4,3,1.8,4
2014/5/20 3:31,2,3,2.2,3,2,5
2014/5/20 3:32,2,3,2,3,3.2,3
2014/5/20 3:33,2,3,2,3,3.5,2
2014/5/20 3:34,2,3,2,3,3.3,4
2014/5/20 3:35,1.9,3,2,3,3.1,2
2014/5/20 3:36,1.8,3,1.8,3,2.7,3
2014/5/20 3:37,2,3,2,3,3.1,3
2014/5/20 3:38,2.1,3,2.1,3,3.6,3
2014/5/20 3:39,2.1,3,2.1,3,3.7,4
2014/5/20 3:40,2.1,3,2.2,3,3.2,3
2014/5/20 3:41,2.2,3,2.2,3,4.3,2
2014/5/20 3:42,2.4,3,2.4,3,4.8,3
2014/5/20 3:43,2.5,3,2.5,3,4.2,4
2014/5/20 3:44,2.5,3,2.5,3,3.5,3
2014/5/20 3:45,2.5,3,2.5,3,3,4
2014/5/20 3:46,2.5,3,2.5,3,2.6,4
2014/5/20 3:47,2.5,3,2.5,3,3.2,4
2014/5/20 3:48,2.4,3,2.5,3,2.6,3
2014/5/20 3:49,2.3,3,2.4,3,3.3,4
2014/5/20 3:50,2.4,3,2.4,3,3.8,3
2014/5/20 3:51,2.5,3,2.5,3,4.3,3
2014/5/20 3:52,2.5,3,2.5,3,5.1,3
2014/5/20 3:53,2.6,3,2.6,3,4.7,3
2014/5/20 3:54,2.6,3,2.6,3,3.7,5
2014/5/20 3:55,2.6,3,2.6,3,3,5
2014/5/20 3:56,2.7,3,2.7,3,4.2,4
2014/5/20 3:57,2.7,4,2.7,3,3.6,4
2014/5/20 3:58,2.9,4,2.9,4,4.5,4
2014/5/20 3:59,2.9,4,2.9,4,4.4,4
2014/5/20 4:00,3,4,3,4,4.7,3
2014/5/20 4:01,3.1,4,3.1,4,4.9,4
2014/5/20 4:02,2.9,4,3,4,3.9,3
2014/5/20 4:03,2.9,4,2.9,4,4.5,4
2014/5/20 4:04,2.9,4,2.9,4,4.1,2
2014/5/20 4:05,3,3,3,4,4.3,3
2014/5/20 4:06,3,3,3.1,4,4.3,3
2014/5/20 4:07,3.1,3,3.1,4,5.4,3
2014/5/20 4:08,3.1,3,3.1,4,4.2,3
2014/5/20 4:09,3.1,3,3.1,4,3.9,3
2014/5/20 4:10,3,3,3.1,4,4.2,3
2014/5/20 4:11,3,3,3,3,4.1,3
2014/5/20 4:12,3,3,3,3,4.1,3
2014/5/20 4:13,3,3,3,3,4.5,3
2014/5/20 4:14,3.1,3,3.1,3,4.9,4
2014/5/20 4:15,3.1,3,3.1,3,4.2,3
2014/5/20 4:16,3,3,3.1,3,3.3,3
2014/5/20 4:17,3,3,3,3,4.7,4
2014/5/20 4:18,2.9,3,3,3,3.9,4
2014/5/20 4:19,2.9,3,2.9,3,3,3
2014/5/20 4:20,2.8,3,2.9,3,3.8,3
2014/5/20 4:21,2.7,3,2.8,3,2.2,3
2014/5/20 4:22,2.7,3,2.7,3,4.1,4
2014/5/20 4:23,2.6,3,2.7,3,3.6,2
2014/5/20 4:24,2.5,3,2.6,3,3.8,3
2014/5/20 4:25,2.4,3,2.5,3,3.8,4
2014/5/20 4:26,2.5,3,2.5,3,4.3,3
2014/5/20 4:27,2.5,3,2.6,3,4.1,3
2014/5/20 4:28,2.6,3,2.6,3,4.5,3
2014/5/20 4:29,2.7,3,2.7,3,3.8,4
2014/5/20 4:30,2.7,3,2.7,3,4.2,4
2014/5/20 4:31,2.7,3,2.7,3,2.7,2
2014/5/20 4:32,2.7,3,2.7,3,3.5,3
2014/5/20 4:33,2.7,3,2.7,3,3.8,4
2014/5/20 4:34,2.6,3,2.7,3,3.5,4
2014/5/20 4:35,2.7,3,2.7,3,3.9,3
2014/5/20 4:36,2.5,3,2.7,3,3.3,3
2014/5/20 4:37,2.5,3,2.5,3,3.1,4
2014/5/20 4:38,2.4,3,2.5,3,3.2,3
2014/5/20 4:39,2.3,3,2.4,3,2.7,4
2014/5/20 4:40,2.2,3,2.3,3,2.6,4
2014/5/20 4:41,2.2,3,2.2,3,3,4
2014/5/20 4:42,2.2,4,2.2,3,3,5
2014/5/20 4:43,2.1,4,2.2,3,2.7,5
2014/5/20 4:44,2.1,4,2.1,3,4.3,5
2014/5/20 4:45,2.2,4,2.2,3,4.2,5
2014/5/20 4:46,2.1,4,2.1,3,2.7,6
2014/5/20 4:47,2.1,5,2.1,3,3.2,2
2014/5/20 4:48,2.1,5,2.1,3,2.9,5
2014/5/20 4:49,2.1,5,2.1,3,3,5
2014/5/20 4:50,2.1,5,2.1,3,3.6,5
2014/5/20 4:51,2,5,2.1,4,2,6
2014/5/20 4:52,2,5,2,4,3.9,4
2014/5/20 4:53,2.1,5,2.1,4,4.1,4
2014/5/20 4:54,2,5,2.1,4,3.2,5
2014/5/20 4:55,1.9,5,2,4,3.1,5
2014/5/20 4:56,2,4,2,4,4.5,5
2014/5/20 4:57,2,4,2.1,5,3.7,3
2014/5/20 4:58,2.1,4,2.1,5,4.7,4
2014/5/20 4:59,2.1,4,2.1,5,3.1,3
2014/5/20 5:00,2.2,4,2.2,4,2.9,4
2014/5/20 5:01,2.1,4,2.2,4,2,3
2014/5/20 5:02,2.1,4,2.2,4,2,6
2014/5/20 5:03,1.9,4,2.1,4,3.3,3
2014/5/20 5:04,1.9,4,2,4,3.3,3
2014/5/20 5:05,1.9,4,2,4,2.6,4
2014/5/20 5:06,1.8,3,1.9,4,2.6,2
2014/5/20 5:07,1.8,3,1.8,4,2.6,2
2014/5/20 5:08,1.7,3,1.8,4,2.7,4
2014/5/20 5:09,1.7,3,1.7,4,2.9,3
2014/5/20 5:10,1.7,3,1.7,4,3.5,3
2014/5/20 5:11,1.8,3,1.8,4,2.4,3
2014/5/20 5:12,1.9,3,1.9,4,3.1,3
2014/5/20 5:13,1.9,3,1.9,4,2.5,3
2014/5/20 5:14,1.8,3,1.9,4,2.6,3
2014/5/20 5:15,1.7,3,1.8,4,1.8,2
2014/5/20 5:16,1.7,3,1.8,3,2.4,3
2014/5/20 5:17,1.7,3,1.7,3,1.8,3
2014/5/20 5:18,1.7,3,1.7,3,2.4,3
2014/5/20 5:19,1.6,3,1.7,3,2.2,3
2014/5/20 5:20,1.5,3,1.6,3,2,3
2014/5/20 5:21,1.5,3,1.5,3,3.2,3
2014/5/20 5:22,1.6,3,1.6,3,3.6,3
2014/5/20 5:23,1.6,2,1.6,3,3.2,2
2014/5/20 5:24,1.6,2,1.6,3,2.2,1
2014/5/20 5:25,1.6,2,1.6,3,2.4,2
2014/5/20 5:26,1.6,2,1.6,3,2,2
2014/5/20 5:27,1.7,2,1.7,3,2.7,2
2014/5/20 5:28,1.7,2,1.7,3,3.5,2
2014/5/20 5:29,1.8,2,1.8,2,2.5,3
2014/5/20 5:30,1.8,2,1.8,2,3.2,4
2014/5/20 5:31,1.8,2,1.8,2,2.7,2
2014/5/20 5:32,1.7,2,1.8,2,2.2,2
2014/5/20 5:33,1.7,2,1.7,2,3.5,2
2014/5/20 5:34,1.8,2,1.8,2,3,3
2014/5/20 5:35,1.8,2,1.8,2,2.4,2
2014/5/20 5:36,1.8,2,1.8,2,2.9,2
2014/5/20 5:37,1.8,2,1.8,2,2.6,2
2014/5/20 5:38,1.7,2,1.8,2,3,1
2014/5/20 5:39,1.7,2,1.7,2,3.6,2
2014/5/20 5:40,1.7,2,1.7,2,3,3
2014/5/20 5:41,1.8,2,1.8,2,2.4,2
2014/5/20 5:42,1.8,2,1.8,2,2.7,2
2014/5/20 5:43,1.8,2,1.9,2,3.3,3
2014/5/20 5:44,1.7,2,1.9,2,2.9,2
2014/5/20 5:45,1.8,2,1.8,2,2.4,2
2014/5/20 5:46,1.8,2,1.8,2,3.3,3
2014/5/20 5:47,1.8,2,1.8,2,2.2,3
2014/5/20 5:48,1.7,2,1.8,2,1.9,1
2014/5/20 5:49,1.7,2,1.8,2,2.6,2
2014/5/20 5:50,1.7,2,1.7,2,4.5,1
2014/5/20 5:51,1.8,2,1.8,2,3.3,3
2014/5/20 5:52,1.7,2,1.8,2,2,2
2014/5/20 5:53,1.7,2,1.7,2,3.3,2
2014/5/20 5:54,1.8,2,1.8,2,3.2,3
2014/5/20 5:55,1.8,2,1.8,2,3,1
2014/5/20 5:56,1.7,2,1.7,2,1.6,1
2014/5/20 5:57,1.6,2,1.6,2,1.9,1
2014/5/20 5:58,1.6,2,1.6,2,2.7,2
2014/5/20 5:59,1.6,2,1.7,2,2.4,3
2014/5/20 6:00,1.5,2,1.6,2,1.5,1
2014/5/20 6:01,1.5,2,1.5,2,2.9,3
2014/5/20 6:02,1.5,2,1.5,2,2,2
2014/5/20 6:03,1.4,2,1.5,2,1.5,16
2014/5/20 6:04,1.3,2,1.3,2,2.1,3
2014/5/20 6:05,1.3,2,1.3,2,2.4,3
2014/5/20 6:06,1.3,2,1.3,2,1.9,2
2014/5/20 6:07,1.2,2,1.3,2,2,2
2014/5/20 6:08,1.2,2,1.3,2,2.5,2
2014/5/20 6:09,1.2,2,1.2,2,2.4,3
2014/5/20 6:10,1.4,2,1.4,2,3.5,3
2014/5/20 6:11,1.4,2,1.4,2,3,2
2014/5/20 6:12,1.4,2,1.4,2,2,4
2014/5/20 6:13,1.5,2,1.5,2,1.6,2
2014/5/20 6:14,1.5,2,1.5,2,1.5,3
2014/5/20 6:15,1.5,3,1.5,2,3,4
2014/5/20 6:16,1.6,3,1.6,3,2.9,4
2014/5/20 6:17,1.7,3,1.7,3,2.7,4
2014/5/20 6:18,1.7,3,1.7,3,2.5,4
2014/5/20 6:19,1.7,3,1.7,3,2.2,3
2014/5/20 6:20,1.6,3,1.7,3,2.5,3
2014/5/20 6:21,1.6,3,1.6,3,2,2
2014/5/20 6:22,1.6,3,1.6,3,2.5,3
2014/5/20 6:23,1.6,3,1.6,3,1.8,3
2014/5/20 6:24,1.7,3,1.7,3,2.9,3
2014/5/20 6:25,1.7,3,1.8,3,3,4
2014/5/20 6:26,1.7,3,1.7,3,2.6,3
2014/5/20 6:27,1.6,3,1.7,3,2.9,3
2014/5/20 6:28,1.7,3,1.7,3,3.3,3
2014/5/20 6:29,1.8,3,1.8,3,3.3,3
2014/5/20 6:30,1.8,3,1.8,3,2.7,2
2014/5/20 6:31,1.8,3,1.9,3,3.5,3
2014/5/20 6:32,1.8,3,1.9,3,2.5,3
2014/5/20 6:33,1.9,3,1.9,3,2.5,3
2014/5/20 6:34,1.8,3,1.9,3,2.4,3
2014/5/20 6:35,1.8,3,1.8,3,3.1,3
2014/5/20 6:36,1.9,3,1.9,3,3.3,3
2014/5/20 6:37,2,3,2,3,2.7,3
2014/5/20 6:38,2,3,2,3,2.9,3
2014/5/20 6:39,1.9,3,2,3,2.9,2
2014/5/20 6:40,1.9,3,2,3,2.6,3
2014/5/20 6:41,1.8,2,1.9,3,1.6,3
2014/5/20 6:42,1.7,2,1.8,3,1.3,2
2014/5/20 6:43,1.6,2,1.7,3,0.8,4
2014/5/20 6:44,1.5,3,1.6,3,1.8,2
2014/5/20 6:45,1.5,3,1.5,3,2.4,3
2014/5/20 6:46,1.5,3,1.5,3,3.3,3
2014/5/20 6:47,1.3,3,1.5,3,1.9,5
2014/5/20 6:48,1.2,3,1.3,3,0.9,3
2014/5/20 6:49,1.1,3,1.2,3,1.1,3
2014/5/20 6:50,1,3,1,3,1.5,3
2014/5/20 6:51,1,3,1,2,1.5,3
2014/5/20 6:52,1.1,3,1.1,2,2.1,3
2014/5/20 6:53,1.2,3,1.2,2,2,3
2014/5/20 6:54,1.3,3,1.3,3,2.7,3
2014/5/20 6:55,1.3,3,1.3,3,1.8,3
2014/5/20 6:56,1.1,3,1.2,3,1.4,2
2014/5/20 6:57,1.2,3,1.2,3,2.4,4
2014/5/20 6:58,1.3,3,1.3,3,3.1,4
2014/5/20 6:59,1.5,3,1.5,3,3.7,4
2014/5/20 7:00,1.5,3,1.5,3,2.5,2
2014/5/20 7:01,1.6,3,1.6,3,2.9,3
2014/5/20 7:02,1.8,3,1.8,3,3.3,3
2014/5/20 7:03,1.8,3,1.8,3,2.7,4
2014/5/20 7:04,1.8,3,1.8,3,2.2,5
2014/5/20 7:05,1.8,3,1.8,3,2.2,4
2014/5/20 7:06,2,3,2,3,3.8,4
2014/5/20 7:07,2.1,3,2.1,3,3.6,3
2014/5/20 7:08,2.1,3,2.1,3,3,4
2014/5/20 7:09,2.1,3,2.1,3,3.5,4
2014/5/20 7:10,2.2,4,2.2,4,3.5,4
2014/5/20 7:11,2.2,4,2.2,4,3.5,4
2014/5/20 7:12,2.3,4,2.3,4,3.6,3
2014/5/20 7:13,2.3,4,2.3,4,3.2,3
2014/5/20 7:14,2.3,3,2.3,4,2.7,4
2014/5/20 7:15,2.3,3,2.3,4,2.6,2
2014/5/20 7:16,2.3,3,2.4,3,3.2,2
2014/5/20 7:17,2.3,3,2.3,3,2.9,4
2014/5/20 7:18,2.2,3,2.2,3,3.2,3
2014/5/20 7:19,2.2,3,2.2,3,3.3,4
2014/5/20 7:20,2.2,3,2.2,3,3.9,4
2014/5/20 7:21,2.1,3,2.2,3,3,4
2014/5/20 7:22,2,3,2.1,3,3.6,6
2014/5/20 7:23,2,3,2,3,4.2,6
2014/5/20 7:24,2,4,2,3,2.4,5
2014/5/20 7:25,2.1,4,2.1,3,2.9,5
2014/5/20 7:26,2,4,2.1,3,2.5,5
2014/5/20 7:27,2,4,2,3,4.4,3
2014/5/20 7:28,2.2,4,2.2,3,5.1,3
2014/5/20 7:29,2.3,4,2.3,4,3.9,4
2014/5/20 7:30,2.2,4,2.3,4,3.3,5
2014/5/20 7:31,2.3,4,2.3,4,3.3,4
2014/5/20 7:32,2.3,5,2.3,4,3.7,6
2014/5/20 7:33,2.4,4,2.4,4,3.9,5
2014/5/20 7:34,2.5,4,2.5,4,3.7,5
2014/5/20 7:35,2.4,4,2.5,4,3.6,4
2014/5/20 7:36,2.5,4,2.5,4,3.2,4
2014/5/20 7:37,2.4,4,2.5,4,2.7,2
2014/5/20 7:38,2.4,4,2.4,4,4.1,2
2014/5/20 7:39,2.3,4,2.4,4,3.7,3
2014/5/20 7:40,2.3,4,2.3,4,4.1,3
2014/5/20 7:41,2.2,4,2.3,4,2.5,7
2014/5/20 7:42,2.1,4,2.2,4,2.5,6
2014/5/20 7:43,2,4,2.1,4,2.2,3
2014/5/20 7:44,1.9,4,1.9,4,3,3
2014/5/20 7:45,2,4,2,4,3.7,4
2014/5/20 7:46,2,4,2,4,2.9,3
2014/5/20 7:47,2,4,2,4,2.5,5
2014/5/20 7:48,2,4,2,4,3.6,5
2014/5/20 7:49,1.9,4,2,4,3.1,5
2014/5/20 7:50,2,4,2,4,3.6,5
2014/5/20 7:51,2,4,2,4,3.8,5
2014/5/20 7:52,2,4,2,4,3.1,5
2014/5/20 7:53,2.2,4,2.2,4,4.4,6
2014/5/20 7:54,2.3,5,2.3,5,3.9,6
2014/5/20 7:55,2.2,5,2.2,5,3.7,5
2014/5/20 7:56,2.3,5,2.3,5,4.1,5
2014/5/20 7:57,2.5,5,2.5,5,5.5,5
2014/5/20 7:58,2.6,5,2.6,5,5.7,5
2014/5/20 7:59,2.7,5,2.7,5,4.4,5
2014/5/20 8:00,2.8,5,2.8,5,4.5,4
2014/5/20 8:01,2.8,5,2.8,5,4.2,6
2014/5/20 8:02,2.9,5,2.9,5,3.9,6
2014/5/20 8:03,2.8,5,2.9,5,3.8,5
2014/5/20 8:04,2.9,5,2.9,5,3.5,6
2014/5/20 8:05,2.8,5,2.9,5,3.2,5
2014/5/20 8:06,2.7,5,2.8,5,2.2,5
2014/5/20 8:07,2.4,6,2.7,5,1.3,7
2014/5/20 8:08,2.2,6,2.4,5,3.5,5
2014/5/20 8:09,2.1,6,2.2,5,3.3,6
2014/5/20 8:10,2,6,2.1,5,3.7,5
2014/5/20 8:11,1.9,6,2,5,3.8,6
2014/5/20 8:12,1.9,5,2,5,3.9,4
2014/5/20 8:13,1.8,5,1.9,5,3,2
2014/5/20 8:14,1.7,5,1.8,5,2.5,5
2014/5/20 8:15,1.6,5,1.7,5,2.5,4
2014/5/20 8:16,1.7,5,1.7,5,4.4,3
2014/5/20 8:17,1.9,5,1.9,6,4.4,3
2014/5/20 8:18,2.1,5,2.1,6,6,5
2014/5/20 8:19,2.4,4,2.4,4,5.2,4
2014/5/20 8:20,2.5,4,2.5,4,4.9,4
2014/5/20 8:21,2.7,4,2.7,4,5.2,4
2014/5/20 8:22,2.9,4,2.9,4,6.1,3
2014/5/20 8:23,3.1,4,3.1,4,6.5,4
2014/5/20 8:24,3.3,4,3.3,4,5.1,4
2014/5/20 8:25,3.6,4,3.6,4,5.7,5
2014/5/20 8:26,3.7,4,3.7,4,6.5,3
2014/5/20 8:27,3.8,4,3.8,4,5.8,3
2014/5/20 8:28,3.8,4,3.8,4,4.8,4
2014/5/20 8:29,3.6,4,3.8,4,4.1,4
2014/5/20 8:30,3.7,4,3.7,4,6.1,4
2014/5/20 8:31,3.6,4,3.7,4,5.1,5
2014/5/20 8:32,3.6,4,3.6,4,5.7,6
2014/5/20 8:33,3.6,4,3.6,4,7,5
2014/5/20 8:34,3.8,4,3.8,4,6.1,5
2014/5/20 8:35,3.7,4,3.8,4,4.7,4
2014/5/20 8:36,3.6,4,3.7,4,4.7,5
2014/5/20 8:37,3.5,5,3.6,4,4.8,5
2014/5/20 8:38,3.5,5,3.6,4,5.5,5
2014/5/20 8:39,3.6,5,3.6,4,5.1,6
2014/5/20 8:40,3.5,5,3.6,4,5.4,5
2014/5/20 8:41,3.4,5,3.5,4,4.5,6
2014/5/20 8:42,3.4,5,3.4,4,5.6,5
2014/5/20 8:43,3.4,5,3.5,4,6.2,5
2014/5/20 8:44,3.4,5,3.5,4,6.2,5
2014/5/20 8:45,3.4,5,3.4,4,6.1,5
2014/5/20 8:46,3.4,6,3.4,4,4.7,7
2014/5/20 8:47,3.3,6,3.4,5,4.4,7
2014/5/20 8:48,3.2,5,3.3,5,3.8,4
2014/5/20 8:49,3.2,5,3.2,5,7.6,4
2014/5/20 8:50,3.3,5,3.3,5,7.1,5
2014/5/20 8:51,3.5,5,3.5,5,6.3,3
2014/5/20 8:52,3.6,5,3.6,5,6.4,6
2014/5/20 8:53,3.5,5,3.6,5,6.5,6
2014/5/20 8:54,3.5,5,3.5,5,6.2,5
2014/5/20 8:55,3.7,5,3.7,5,7.2,5
2014/5/20 8:56,3.9,5,3.9,5,7.1,5
2014/5/20 8:57,4.1,5,4.1,5,6.7,4
2014/5/20 8:58,4.4,5,4.4,5,6.5,5
2014/5/20 8:59,4.4,5,4.4,5,5.4,5
2014/5/20 9:00,4.3,5,4.4,5,6.8,4
2014/5/20 9:01,4.3,5,4.3,5,6.5,5
2014/5/20 9:02,4.2,5,4.3,5,4.9,6
2014/5/20 9:03,4.1,5,4.2,5,5.5,4
2014/5/20 9:04,4,5,4.1,5,5.8,4
2014/5/20 9:05,4,5,4,5,6.1,5
2014/5/20 9:06,4,5,4.1,5,6.5,5
2014/5/20 9:07,4,5,4,5,7.5,5
2014/5/20 9:08,3.9,5,4,5,6.3,5
2014/5/20 9:09,4,5,4,5,6.7,6
2014/5/20 9:10,4.1,5,4.1,5,7.5,4
2014/5/20 9:11,4.2,5,4.2,5,7.1,4
2014/5/20 9:12,4.3,5,4.3,5,6.1,5
2014/5/20 9:13,4.3,5,4.3,5,5.4,4
2014/5/20 9:14,4.2,5,4.2,5,6.5,4
2014/5/20 9:15,4.2,5,4.3,5,6.1,5
2014/5/20 9:16,4.1,5,4.2,5,6,5
2014/5/20 9:17,3.9,5,4.1,5,4.4,7
2014/5/20 9:18,3.9,5,3.9,5,5.8,4
2014/5/20 9:19,3.9,5,4,5,7,6
2014/5/20 9:20,3.9,5,4,5,7.5,5
2014/5/20 9:21,3.9,5,3.9,5,7.2,5
2014/5/20 9:22,4,5,4,5,6.7,4
2014/5/20 9:23,4,5,4,5,6.2,5
2014/5/20 9:24,4,5,4.1,5,7,4
2014/5/20 9:25,4,5,4,5,4.7,5
2014/5/20 9:26,4.1,5,4.1,5,8.5,4
2014/5/20 9:27,4.4,5,4.4,5,9.3,4
2014/5/20 9:28,4.4,5,4.5,5,7.2,6
2014/5/20 9:29,4.5,5,4.5,5,7.6,4
2014/5/20 9:30,4.6,5,4.6,5,6.8,5
2014/5/20 9:31,4.3,5,4.5,5,4.3,6
2014/5/20 9:32,4.1,5,4.3,5,4.9,6
2014/5/20 9:33,4.2,5,4.2,5,6.3,6
2014/5/20 9:34,4.2,5,4.2,5,5.2,6
2014/5/20 9:35,4.1,5,4.2,5,4.7,6
2014/5/20 9:36,4,5,4.1,5,4.7,4
2014/5/20 9:37,3.7,5,3.9,5,4.4,2
2014/5/20 9:38,3.6,5,3.7,5,7.2,7
2014/5/20 9:39,3.5,6,3.6,5,5.6,6
2014/5/20 9:40,3.3,6,3.5,5,6.4,5
2014/5/20 9:41,3.4,6,3.5,5,7.7,5
2014/5/20 9:42,3.4,6,3.5,5,6,4
2014/5/20 9:43,3.3,6,3.4,5,3.7,5
2014/5/20 9:44,3.2,6,3.3,5,5.5,6
2014/5/20 9:45,3.1,6,3.1,5,4.5,6
2014/5/20 9:46,3.2,6,3.2,5,6.2,6
2014/5/20 9:47,3.3,6,3.3,5,7.2,5
2014/5/20 9:48,3.4,6,3.4,6,6.2,6
2014/5/20 9:49,3.3,6,3.4,6,5.4,7
2014/5/20 9:50,3.4,6,3.4,6,6.8,6
2014/5/20 9:51,3.5,6,3.5,6,6.5,6
2014/5/20 9:52,3.5,6,3.5,6,4.9,6
2014/5/20 9:53,3.5,6,3.5,6,3.8,6
2014/5/20 9:54,3.5,6,3.5,6,4.4,4
2014/5/20 9:55,3.7,6,3.7,6,6.9,4
2014/5/20 9:56,3.7,6,3.8,6,5.2,6
2014/5/20 9:57,3.7,6,3.8,6,5.5,4
2014/5/20 9:58,3.6,6,3.7,6,5,4
2014/5/20 9:59,3.5,6,3.6,6,4.4,4
2014/5/20 10:00,3.5,5,3.5,6,5.7,5
2014/5/20 10:01,3.4,5,3.5,6,6.8,5
2014/5/20 10:02,3.4,5,3.4,6,5.4,6
2014/5/20 10:03,3.5,5,3.5,6,5,6
2014/5/20 10:04,3.7,5,3.7,6,6.5,6
2014/5/20 10:05,3.6,5,3.7,6,4.8,6
2014/5/20 10:06,3.4,5,3.5,6,4.4,6
2014/5/20 10:07,3.3,5,3.4,6,4.9,6
2014/5/20 10:08,3.3,5,3.4,5,6.2,5
2014/5/20 10:09,3.5,5,3.5,5,7,4
2014/5/20 10:10,3.6,5,3.6,5,6.1,4
2014/5/20 10:11,3.5,5,3.6,5,5.2,5
2014/5/20 10:12,3.6,5,3.6,5,5.6,5
2014/5/20 10:13,3.6,5,3.7,5,5.6,5
2014/5/20 10:14,3.4,5,3.6,5,3.3,7
2014/5/20 10:15,3.4,5,3.4,5,7.4,4
2014/5/20 10:16,3.6,5,3.6,5,4.9,5
2014/5/20 10:17,3.7,5,3.7,5,5.8,5
2014/5/20 10:18,3.7,5,3.7,5,5.7,2
2014/5/20 10:19,3.6,5,3.7,5,4.2,5
2014/5/20 10:20,3.5,5,3.6,5,6.1,5
2014/5/20 10:21,3.5,5,3.5,5,6.2,5
2014/5/20 10:22,3.5,5,3.6,5,6.8,5
2014/5/20 10:23,3.4,5,3.5,5,5.1,6
2014/5/20 10:24,3.7,5,3.7,5,6.7,7
2014/5/20 10:25,3.7,5,3.7,5,5.5,6
2014/5/20 10:26,3.5,5,3.6,5,4.5,6
2014/5/20 10:27,3.4,6,3.5,5,4.3,6
2014/5/20 10:28,3.4,6,3.4,5,5.8,5
2014/5/20 10:29,3.5,6,3.5,5,6.1,5
2014/5/20 10:30,3.6,6,3.6,5,6.8,6
2014/5/20 10:31,3.7,6,3.7,5,7.1,5
2014/5/20 10:32,3.6,6,3.7,5,5.8,5
2014/5/20 10:33,3.9,5,3.9,5,9,6
2014/5/20 10:34,3.9,5,3.9,5,7.9,5
2014/5/20 10:35,3.9,6,3.9,5,6.7,7
2014/5/20 10:36,4.1,6,4.1,6,7,6
2014/5/20 10:37,4.2,5,4.2,6,5.8,5
2014/5/20 10:38,4.3,6,4.3,5,7.2,5
2014/5/20 10:39,4.2,6,4.3,5,6.8,6
2014/5/20 10:40,4.3,6,4.3,5,8.3,7
2014/5/20 10:41,4.2,6,4.3,5,7.2,7
2014/5/20 10:42,4.3,6,4.4,6,6.3,6
2014/5/20 10:43,4.1,6,4.3,6,5.4,7
2014/5/20 10:44,3.9,6,4.1,6,4.5,6
2014/5/20 10:45,3.9,6,3.9,6,5.4,4
2014/5/20 10:46,3.5,6,3.8,6,2.6,4
2014/5/20 10:47,3.4,6,3.5,6,3.8,5
2014/5/20 10:48,3.1,6,3.4,6,2.6,8
2014/5/20 10:49,3,6,3.1,6,5,8
2014/5/20 10:50,2.7,6,3,6,4.2,6
2014/5/20 10:51,2.7,6,2.7,6,6.7,3
2014/5/20 10:52,2.6,6,2.7,6,5.8,6
2014/5/20 10:53,2.6,6,2.6,6,7.2,9
2014/5/20 10:54,2.9,6,2.9,6,8.4,8
2014/5/20 10:55,3.1,7,3.1,6,11.3,8
2014/5/20 10:56,3.6,7,3.6,7,9.9,8
2014/5/20 10:57,3.9,8,3.9,8,8.2,7
2014/5/20 10:58,4.3,7,4.3,7,8.6,7
2014/5/20 10:59,4.3,7,4.3,7,5.4,7
2014/5/20 11:00,4.4,7,4.4,7,6.2,5
2014/5/20 11:01,4.5,7,4.5,7,6.4,6
2014/5/20 11:02,4.4,8,4.5,7,5.8,8
2014/5/20 11:03,4.5,8,4.6,8,7.4,8
2014/5/20 11:04,4.4,8,4.6,8,7.5,8
2014/5/20 11:05,4.3,7,4.4,8,7.5,8
2014/5/20 11:06,3.8,7,4.2,8,4.4,2
2014/5/20 11:07,3.5,7,3.8,8,6.4,5
2014/5/20 11:08,3.3,7,3.5,8,7,6
2014/5/20 11:09,3.4,7,3.4,8,6.3,6
2014/5/20 11:10,3.3,7,3.4,8,4.7,6
2014/5/20 11:11,3.3,7,3.3,8,6.3,8
2014/5/20 11:12,3.5,7,3.5,8,8.3,8
2014/5/20 11:13,3.3,7,3.5,8,6.1,8
2014/5/20 11:14,3.3,7,3.3,8,6.3,6
2014/5/20 11:15,3.4,7,3.4,7,6.1,8
2014/5/20 11:16,3.6,7,3.6,7,6,8
2014/5/20 11:17,3.7,7,3.7,7,4.4,7
2014/5/20 11:18,3.6,7,3.7,7,4.9,5
2014/5/20 11:19,3.6,7,3.6,7,6.2,6
2014/5/20 11:20,3.9,7,3.9,7,6.9,5
2014/5/20 11:21,3.7,7,3.9,7,4.9,6
2014/5/20 11:22,3.5,7,3.7,7,5,6
2014/5/20 11:23,3.6,7,3.6,7,5.6,5
2014/5/20 11:24,3.6,7,3.6,7,7.4,6
2014/5/20 11:25,3.6,7,3.7,7,8.6,8
2014/5/20 11:26,3.7,7,3.7,7,6.8,8
2014/5/20 11:27,3.9,7,3.9,7,7.8,6
2014/5/20 11:28,4,7,4,7,6.5,6
2014/5/20 11:29,4,7,4.1,7,5.8,7
2014/5/20 11:30,3.8,7,4,7,4.7,8
2014/5/20 11:31,4,7,4,7,8.7,8
2014/5/20 11:32,4.1,7,4.2,7,7.8,8
2014/5/20 11:33,4.1,7,4.1,7,9.8,7
2014/5/20 11:34,4,7,4.2,7,8.3,8
2014/5/20 11:35,3.8,7,4,7,4.7,6
2014/5/20 11:36,3.6,7,3.8,7,3.6,5
2014/5/20 11:37,3.3,7,3.6,7,3.6,5
2014/5/20 11:38,3.2,7,3.2,7,4.8,6
2014/5/20 11:39,3,7,3.2,7,3.7,9
2014/5/20 11:40,3,7,3.1,7,4.4,7
2014/5/20 11:41,2.9,7,3,7,5.2,7
2014/5/20 11:42,2.8,7,2.9,7,3.9,6
2014/5/20 11:43,2.6,7,2.8,7,3.6,7
2014/5/20 11:44,2.4,7,2.5,7,3.2,6
2014/5/20 11:45,2.4,7,2.4,7,4.7,8
2014/5/20 11:46,2.3,7,2.4,7,4.8,8
2014/5/20 11:47,2.3,7,2.3,7,2.9,7